Tracking 29892 objects as of 21-Nov-2024
HD Live streaming from Space Station
objects crossing your sky now

STARLINK-3103

Track STARLINK-3103 now!
10-day predictions
STARLINK-3103 is classified as:


NORAD ID: 49177
Int'l Code: 2021-082AZ
Perigee: 577.1 km
Apogee: 581.3 km
Inclination: 70.0 °
Period: 96.1 minutes
Semi major axis: 6950 km
RCS: Unknown
Launch date: September 14, 2021
Source: United States (US)
Launch site: AIR FORCE WESTERN TEST RANGE (AFWTR)
Your satellite tracking list
Your tracking list is empty




NASA's NSSDC Master Catalog

Two Line Element Set (TLE):
1 49177U 21082AZ  24325.52993923  .00000623  00000-0  59968-4 0  9991
2 49177  70.0003   9.9884 0003002 269.1355  90.9460 14.98339923177132
Source of the keplerian elements: AFSPC